Regional Weather Roundup
Issued by NWS Raleigh/Durham, NC

Home | Current Version | Previous Version | Text Only | Print | Product List | Glossary On
Versions: 1 2 3 4 5 6 7 8 9 10 11 12 13 14 15 16 17 18 19 20 21 22 23 24 25 26 27 28 29 30 31 32 33 34 35 36 37 38 39 40 41 42 43 44 45 46 47 48 49 50
000
ASUS42 KRAH 221510
RWRRAH
NORTH CAROLINA WEATHER ROUNDUP
NATIONAL WEATHER SERVICE RALEIGH NC
1100 AM EDT THU JUN 22 2017

NOTE: "FAIR" INDICATES FEW OR NO CLOUDS BELOW 12,000 FEET WITH NO
SIGNIFICANT WEATHER AND/OR OBSTRUCTIONS TO VISIBILITY.

NCZ001-053-055-056-065-067-221600-
WESTERN NORTH CAROLINA

CITY           SKY/WX    TMP DP  RH WIND       PRES   REMARKS
ASHEVILLE      LGT RAIN  69  66  90 S5        30.21S
JEFFERSON      CLOUDY    68  62  83 CALM      30.23S
HICKORY        LGT RAIN  73  70  90 S6        30.15S
RUTHERFORDTON  NOT AVBL
MOUNT AIRY     CLOUDY    76  68  75 CALM      30.16R
BOONE          NOT AVBL
$$

NCZ021-022-025-041-071-084-088-221600-
CENTRAL NORTH CAROLINA

CITY           SKY/WX    TMP DP  RH WIND       PRES   REMARKS
CHARLOTTE      LGT RAIN  73  68  84 SW7       30.17R
GREENSBORO     CLOUDY    78  72  81 SW8       30.13R
WINSTON-SALEM  CLOUDY    78  68  71 SW6       30.14
RALEIGH-DURHAM PTSUNNY   81  74  79 SW9       30.10S
FORT BRAGG     CLOUDY    81  73  76 SW6       30.11R
FAYETTEVILLE   CLOUDY    83  75  77 W8        30.11S
BURLINGTON     CLOUDY    79  72  79 SW6       30.11R
LAURINBURG     CLOUDY    80  75  84 W6        30.13R
$$

NCZ011-015-027-028-043-044-047-080-103-221600-
NORTHEASTERN NORTH CAROLINA

CITY           SKY/WX    TMP DP  RH WIND       PRES   REMARKS
ROCKY MT-WILSO CLOUDY    83  75  77 SW10      30.09S
GREENVILLE     CLOUDY    81  75  83 SW5       30.11S
WASHINGTON     SUNNY     81  74  79 W6        30.09S
ELIZABETH CITY CLOUDY    82  76  81 SW8       30.06
MANTEO         CLOUDY    81  73  75 W6        30.08F
CAPE HATTERAS  CLOUDY    83  74  74 W7        30.09S
$$

NCZ078-087-090-091-093-098-101-221600-
SOUTHEASTERN NORTH CAROLINA

CITY           SKY/WX    TMP DP  RH WIND       PRES   REMARKS
LUMBERTON      CLOUDY    80  75  84 SW5       30.12
GOLDSBORO      CLOUDY    84  78  84 SW7       30.08F
KINSTON        CLOUDY    84  73  70 SW7       30.11
KENANSVILLE    MOSUNNY   82  75  78 W6        30.11S
NEW BERN       MOSUNNY   84  74  71 W7        30.11
CHERRY POINT   SUNNY     86  73  65 W12G17    30.10S
BEAUFORT       NOT AVBL
JACKSONVILLE   PTSUNNY   85  76  74 W12       30.10R
WILMINGTON     MOSUNNY   84  75  74 SW7       30.11S
$$




USA.gov is the U.S. government's official web portal to all federal, state and local government web resources and services.